Location: Newark
(41.0400°S, 62.7845°W)
Time: 14:42:39
(UTC+00:00)

CUTE 1.7 + AOD 2 - Pass Details

Date: 01 February 2022
Orbit: 591 x 607 km, 97.7° (Epoch: 23 May)

Event Time Altitude Azimuth Distance (km) Brightness Sun altitude
Exits shadow 06:37:58 - 52° (NE) 2,048 ? -24.2°
Reaches altitude 10° 06:38:11 10° 53° (NE) 1,970 ? -24.2°
Maximum altitude 06:41:49 27° 111° (ESE) 1,181 ? -23.8°
Drops below altitude 10° 06:45:27 10° 169° (SSE) 1,983 ? -23.3°
Sets 06:47:53 0° 180° (S) 2,892 ? -23.1°
